Вернуться в каталог

STARLINK-32879

АктивенСвязьVLEO
NORAD 62957·PAYLOAD·🇺🇸 United States

Запущен Feb 11, 2025 с Vandenberg Space Force Base

Loading…

Ближайшие Пролёты (ближайшие 24 часа)

TLE

СвежийSource: CelesTrak SupGP

Эпоха: Sep 14, 2026, 22:48 UTC

1 62957C 25029K   26257.95048611  .00038654  00000+0  12432-2 0  2579
2 62957  53.1583  72.1243 0001220  82.4021 209.0119 15.31678795    12

Отслеживайте STARLINK-32879 в реальном времени с AllMySat

Download on the App Store